Bartow, Florida, United States (33830)
Lat: 27.90N, Lon: 81.84W
Wx Zone: FLZ052
Local Info
Past Weather Observations for Sunday, November 23, 2014

NOTE: This archive is for the closest National Weather Service station to Bartow. Information may differ from the station used for current weather conditions.

Click here for Long-term Archive

Time Weather Temperature Dewpoint Humidity Pressure Winds Precip Visibility
23:55
Mostly Cloudy
72°F / 22°C 72°F / 22°C 100% 29.95 in
(1014 mb)
SE 6.9 mph
(SE 11 kph)
- 10SM
23:35
Overcast
72°F / 22°C 72°F / 22°C 100% 29.98 in
(1015 mb)
SE 4.6 mph
(SE 7 kph)
- 10SM
23:15
Mostly Cloudy
72°F / 22°C 72°F / 22°C 100% 29.98 in
(1015 mb)
SE 3.5 mph
(SE 6 kph)
- 10SM
22:55
Overcast
72°F / 22°C 72°F / 22°C 100% 29.98 in
(1015 mb)
ESE 3.5 mph
(ESE 6 kph)
- 10SM
22:35
Mostly Cloudy
70°F / 21°C 70°F / 21°C 100% 29.98 in
(1015 mb)
Calm - 10SM
22:15
Overcast
72°F / 22°C 72°F / 22°C 100% 29.98 in
(1015 mb)
ESE 3.5 mph
(ESE 6 kph)
- 10SM
21:55
Overcast
72°F / 22°C 72°F / 22°C 100% 29.95 in
(1014 mb)
SE 5.8 mph
(SE 9 kph)
- 10SM
21:35
Overcast
72°F / 22°C 72°F / 22°C 100% 29.95 in
(1014 mb)
SE 3.5 mph
(SE 6 kph)
- 10SM
21:15
Partly Cloudy
72°F / 22°C 72°F / 22°C 100% 29.95 in
(1014 mb)
SSE 3.5 mph
(SSE 6 kph)
- 10SM
20:55
Mostly Cloudy
73°F / 23°C 72°F / 22°C 94% 29.95 in
(1014 mb)
SSE 3.5 mph
(SSE 6 kph)
- 10SM
20:35
Mostly Cloudy
73°F / 23°C 72°F / 22°C 94% 29.95 in
(1014 mb)
SW 4.6 mph
(SW 7 kph)
- 10SM
20:15
Clear
73°F / 23°C 72°F / 22°C 94% 29.95 in
(1014 mb)
S 4.6 mph
(S 7 kph)
- 10SM
19:55
Clear
73°F / 23°C 70°F / 21°C 89% 29.95 in
(1014 mb)
S 4.6 mph
(S 7 kph)
- 10SM
19:35
Clear
73°F / 23°C 70°F / 21°C 89% 29.95 in
(1014 mb)
SW 5.8 mph
(SW 9 kph)
- 10SM
19:15
Clear
73°F / 23°C 70°F / 21°C 89% 29.95 in
(1014 mb)
SW 3.5 mph
(SW 6 kph)
- 10SM
18:55
Clear
75°F / 24°C 70°F / 21°C 83% 29.95 in
(1014 mb)
SW 5.8 mph
(SW 9 kph)
- 10SM
18:35
Clear
75°F / 24°C 70°F / 21°C 83% 29.92 in
(1013 mb)
SSE 5.8 mph
(SSE 9 kph)
- 10SM
18:15
Clear
77°F / 25°C 68°F / 20°C 74% 29.92 in
(1013 mb)
SW 9.2 mph
(SW 15 kph)
- 10SM
17:55
Partly Cloudy
79°F / 26°C 70°F / 21°C 74% 29.92 in
(1013 mb)
SW 9.2 mph
(SW 15 kph)
- 10SM
17:35
Mostly Cloudy
81°F / 27°C 70°F / 21°C 70% 29.92 in
(1013 mb)
SW 8.1 mph
(SW 13 kph)
- 10SM
16:50
Mostly Cloudy
81°F / 27°C 70°F / 21°C 70% 29.92 in
(1013 mb)
SSE 9.2 mph
(SSE 15 kph)
- 10SM
15:50
Mostly Cloudy
82°F / 28°C 70°F / 21°C 66% 29.89 in
(1012 mb)
S 12.7 mph
(S 20 kph)
- 10SM
14:55
Mostly Cloudy
82°F / 28°C 70°F / 21°C 66% 29.89 in
(1012 mb)
S 13.8 mph
(S 22 kph)
- 10SM
13:47
Mostly Cloudy
82°F / 28°C 70°F / 21°C 66% 29.92 in
(1013 mb)
S 16.1 mph
(S 26 kph)
- 10SM
12:54
Mostly Cloudy
82°F / 28°C 70°F / 21°C 66% 29.95 in
(1014 mb)
S 16.1 mph
(S 26 kph)
- 10SM
11:54
Mostly Cloudy
82°F / 28°C 70°F / 21°C 66% 30.01 in
(1016 mb)
SSE 15 mph
(SSE 24 kph)
- 10SM
10:47
Mostly Cloudy
79°F / 26°C 72°F / 22°C 79% 30.04 in
(1017 mb)
SSE 16.1 mph
(SSE 26 kph)
- 10SM
09:47
Mostly Cloudy
75°F / 24°C 73°F / 23°C 94% 30.04 in
(1017 mb)
SSE 13.8 mph
(SSE 22 kph)
- 7SM
08:55
Mostly Cloudy
73°F / 23°C 73°F / 23°C 100% 30.04 in
(1017 mb)
SSE 10.4 mph
(SSE 17 kph)
- 7SM
07:47
Overcast
Fog And Mist
72°F / 22°C N/A N/A 30.04 in
(1017 mb)
SE 8.1 mph
(SE 13 kph)
- 3SM
07:15
Overcast
70°F / 21°C N/A N/A 30.04 in
(1017 mb)
SSE 5.8 mph
(SSE 9 kph)
- 8SM
06:55
Overcast
70°F / 21°C N/A N/A 30.04 in
(1017 mb)
SE 5.8 mph
(SE 9 kph)
- 8SM
06:35
Overcast
70°F / 21°C N/A N/A 30.01 in
(1016 mb)
SE 6.9 mph
(SE 11 kph)
- 8SM
06:15
Overcast
70°F / 21°C N/A N/A 30.01 in
(1016 mb)
SE 6.9 mph
(SE 11 kph)
- 8SM
05:55
Overcast
70°F / 21°C N/A N/A 30.01 in
(1016 mb)
SE 6.9 mph
(SE 11 kph)
- 7SM
05:35
Overcast
70°F / 21°C N/A N/A 30.01 in
(1016 mb)
SE 4.6 mph
(SE 7 kph)
- 9SM
05:15
Overcast
70°F / 21°C N/A N/A 30.01 in
(1016 mb)
SE 5.8 mph
(SE 9 kph)
- 9SM
04:55
Mostly Cloudy
70°F / 21°C N/A N/A 30.04 in
(1017 mb)
SE 8.1 mph
(SE 13 kph)
- 10SM
04:35
Mostly Cloudy
70°F / 21°C N/A N/A 30.04 in
(1017 mb)
SE 5.8 mph
(SE 9 kph)
- 10SM
04:15
Mostly Cloudy
70°F / 21°C N/A N/A 30.04 in
(1017 mb)
SE 9.2 mph
(SE 15 kph)
- 10SM
03:55
Overcast
70°F / 21°C N/A N/A 30.04 in
(1017 mb)
ESE 6.9 mph
(ESE 11 kph)
- 10SM
03:35
Overcast
70°F / 21°C 70°F / 21°C 100% 30.04 in
(1017 mb)
ESE 8.1 mph
(ESE 13 kph)
- 8SM
03:15
Overcast
70°F / 21°C 70°F / 21°C 100% 30.06 in
(1018 mb)
ESE 6.9 mph
(ESE 11 kph)
- 8SM
02:55
Overcast
Fog And Mist
70°F / 21°C 70°F / 21°C 100% 30.06 in
(1018 mb)
E 8.1 mph
(E 13 kph)
- 3SM
02:35
Overcast
Fog And Mist
70°F / 21°C 70°F / 21°C 100% 30.06 in
(1018 mb)
SE 6.9 mph
(SE 11 kph)
- 5SM
02:15
Overcast
70°F / 21°C 70°F / 21°C 100% 30.06 in
(1018 mb)
SE 8.1 mph
(SE 13 kph)
- 9SM
01:55
Overcast
70°F / 21°C 70°F / 21°C 100% 30.06 in
(1018 mb)
ESE 11.5 mph
(ESE 19 kph)
- 7SM
01:35
Overcast
70°F / 21°C 70°F / 21°C 100% 30.06 in
(1018 mb)
ESE 9.2 mph
(ESE 15 kph)
- 8SM
01:15
Overcast
Light Rain
70°F / 21°C 70°F / 21°C 100% 30.09 in
(1019 mb)
E 10.4 mph
(E 17 kph)
- 4SM
00:55
Overcast
70°F / 21°C 70°F / 21°C 100% 30.09 in
(1019 mb)
E 12.7 mph
(E 20 kph)
- 7SM
00:35
Overcast
70°F / 21°C 70°F / 21°C 100% 30.09 in
(1019 mb)
E 8.1 mph
(E 13 kph)
- 10SM
00:15
Overcast
70°F / 21°C 70°F / 21°C 100% 30.09 in
(1019 mb)
E 10.4 mph
(E 17 kph)
- 7SM
Time Weather Temperature Dewpoint Humidity Pressure Winds Precip Visibility


Weather for websites

WeatherForYou.com, LLC is not responsible for any damages or problems caused by this service. Current weather conditions are obtained from the closest station including government and personal stations which may have varying degrees of accuracy. Weather forecasts are derived from the NOAA NDFD. Like all things, this site belongs to Jesus Christ... He just trusts me to maintain it. If you have any questions or comments email webmaster@weatherforyou.com

Copyright © 2014, WeatherForYou.com LLC. All rights reserved.